Location: Pasarilla del Rebollar
(40.6790°N, 5.0062°W)
Time: 12:10:15
(UTC+00:00)

Cosmos 2266 Rocket - Pass Details

Date: 22 April 2026
Orbit: 932 x 1008 km, 82.9° (Epoch: 16 May)

Event Time Altitude Azimuth Distance (km) Brightness Sun altitude
Rises 03:14:21 0° 346° (NNW) 3,633 7.4 -23.4°
Reaches altitude 10° 03:16:56 10° 341° (NNW) 2,675 6.6 -23.0°
Maximum altitude 03:22:43 47° 270° (W) 1,229 4.2 -22.2°
Enters shadow 03:23:39 43° 243° (WSW) 1,287 4.2 -22.0°
